Wind_Speed
3 5 8 6 3 4 4 4 5 4 4 6 5 4 4 3 3 5 5 7 6 4 6 6 5 4 6 4 4 3 6 8 8 8 7 7 7 7 8 7 7 6 5 6 7 8 9 10 10 10 10 11 12 12 13 13 13 14 13 13 14 14 13 13 13 12 13 13 13 12 12 11 10 9 8 8 7 7 8 9 9 9 8 6 6 5
4 8 9 4 1 2 2 4 5 4 3 6 6 4 2 2 3 4 4 5 5 5 4 7 7 7 8 6 6 5 6 8 9 9 9 9 8 7 7 7 7 6 5 6 8 9 10 11 11 11 10 12 13 13 14 14 14 15 15 14 14 14 14 13 13 13 12 12 12 12 11 10 10 9 9 8 8 7 8 8 9 8 7 6 5 5
7 10 8 3 1 2 3 4 6 6 5 6 4 4 2 3 4 4 4 4 5 4 2 5 6 7 9 8 8 9 8 7 8 9 9 9 10 8 8 7 7 6 7 7 8 10 11 12 12 11 11 12 13 13 14 14 14 15 15 15 14 14 14 14 14 13 12 12 11 11 10 9 8 9 8 7 6 7 7 9 9 8 7 6 6 5
8 9 8 5 3 5 5 5 7 6 4 5 4 4 2 2 1 2 4 5 4 3 2 1 5 5 7 9 9 11 10 7 6 8 8 8 9 9 9 8 7 8 7 8 8 9 11 13 13 12 11 12 13 13 15 15 15 16 16 17 16 15 15 14 14 13 12 11 10 8 8 7 6 6 7 5 6 6 7 9 9 8 7 7 6 6
7 3 2 5 6 7 7 6 7 6 5 5 3 4 3 1 1 2 5 6 4 4 3 4 4 3 5 8 9 10 11 9 7 8 9 9 9 9 9 9 9 8 8 8 9 9 11 13 14 13 12 13 13 14 15 16 16 16 16 18 17 16 15 14 14 14 12 12 11 8 7 7 5 5 6 7 7 8 8 8 9 9 8 7 7 6
6 4 3 5 8 10 9 7 7 6 5 5 3 3 4 1 3 5 8 6 3 4 3 4 3 2 2 4 6 7 9 11 10 10 10 10 10 10 9 10 10 9 9 9 9 10 11 13 14 14 14 14 14 14 15 16 16 16 17 18 18 17 16 14 15 15 13 12 12 11 10 9 8 7 8 8 8 8 8 8 8 8 8 8 8 7
3 5 4 7 8 10 10 8 7 5 6 3 4 3 1 3 5 8 9 5 3 2 3 4 3 0 1 2 3 5 7 10 11 12 12 10 10 10 9 10 10 10 10 9 10 11 12 13 14 15 15 15 14 15 15 15 16 16 17 19 19 18 17 15 16 16 14 13 13 12 11 11 10 9 8 7 6 7 7 7 6 7 7 8 8 8
4 7 7 8 8 9 9 7 5 6 7 0 4 1 2 4 5 7 7 4 1 2 4 4 3 3 1 3 4 5 6 8 10 12 12 11 11 12 11 11 12 11 10 10 10 11 12 14 15 15 16 16 15 15 15 16 16 17 17 19 19 18 17 17 17 17 15 14 13 13 13 11 10 9 8 7 6 6 6 6 6 6 7 7 7 7
5 8 9 9 9 9 4 1 3 5 5 3 5 1 2 3 4 5 5 2 1 2 2 3 2 4 2 4 4 4 4 5 8 10 12 13 13 13 12 12 13 12 11 11 11 12 13 15 15 15 15 16 15 15 16 16 16 17 17 18 19 18 17 17 17 18 17 15 14 14 13 11 10 9 7 6 6 6 6 6 6 6 6 7 8 8
3 3 4 6 7 4 3 6 3 4 2 4 4 3 3 3 4 4 4 2 2 4 2 1 2 5 2 4 4 2 1 2 3 5 7 10 11 12 12 11 12 11 10 11 11 11 14 16 16 15 15 15 16 15 15 16 16 18 18 18 19 19 18 18 18 18 18 16 15 14 14 12 11 9 6 5 5 5 6 7 7 7 6 7 8 9
3 2 1 4 3 3 7 6 2 1 3 7 6 4 4 4 4 4 3 3 4 5 1 1 2 5 4 2 4 1 1 2 2 2 3 4 7 10 11 11 11 10 10 11 11 12 14 16 16 16 16 16 16 15 16 16 16 17 18 19 19 19 18 18 19 19 18 17 16 16 15 13 12 10 8 6 6 6 7 7 8 8 8 8 8 8
6 6 4 2 2 4 6 6 4 4 6 6 5 4 4 3 3 4 3 3 6 3 3 2 2 4 5 1 3 3 3 2 2 2 2 2 3 6 8 10 11 11 11 11 11 12 13 14 17 17 16 17 16 15 16 17 17 17 18 19 20 19 18 18 19 20 19 18 18 17 16 15 13 11 9 8 8 7 8 8 8 8 8 8 8 9
8 7 5 6 5 6 7 6 5 5 6 6 4 5 5 3 3 5 3 3 5 1 4 3 2 4 6 3 1 2 3 1 1 2 4 2 0 2 5 7 9 10 12 12 12 12 11 13 16 18 18 18 17 16 17 18 17 17 17 18 20 20 19 18 19 20 20 19 18 18 17 15 14 12 10 9 9 9 9 8 9 9 9 9 9 10
7 6 7 7 6 8 9 5 5 6 6 6 5 4 5 3 4 5 3 4 4 2 5 3 2 4 6 2 1 1 2 2 1 1 3 3 2 1 3 4 7 9 11 11 11 12 12 13 15 18 19 20 19 19 19 18 17 16 16 18 19 20 20 19 19 19 20 20 19 18 17 16 14 13 12 11 10 10 9 9 9 10 10 10 10 10
5 5 9 8 5 9 11 6 3 3 6 6 3 4 5 3 3 4 2 3 2 2 4 4 3 4 4 1 2 2 3 3 2 2 2 2 2 1 1 3 4 7 9 10 10 12 13 15 16 17 18 19 20 21 20 18 18 17 17 18 19 19 20 20 19 19 20 20 19 18 18 16 15 14 14 13 11 10 9 10 10 10 10 10 9 9
6 1 7 5 3 7 10 5 3 4 4 4 3 5 5 2 2 3 3 5 6 2 3 4 4 3 1 3 3 2 4 4 3 2 2 2 3 2 1 1 2 3 6 8 9 11 13 16 17 16 16 16 18 19 19 18 18 18 18 19 20 20 20 20 20 19 20 19 19 18 18 17 16 15 15 14 12 11 11 10 10 10 10 10 8 8
6 2 8 5 3 5 6 4 5 5 2 4 5 5 0 3 4 4 2 2 5 5 1 1 5 3 2 4 4 3 3 4 3 3 3 3 3 2 3 2 0 1 2 5 7 9 11 14 16 16 16 16 15 16 17 18 18 19 19 19 20 21 20 20 20 20 20 19 19 19 19 18 17 17 16 15 14 13 12 11 11 11 10 10 9 9
4 2 8 7 6 5 2 4 6 4 3 2 3 4 4 1 4 4 2 2 4 5 1 1 4 3 1 1 3 4 5 4 3 2 3 2 1 2 4 4 2 1 0 3 5 7 9 11 14 16 16 15 15 16 17 17 17 18 18 18 19 20 21 21 20 21 20 20 19 19 19 19 18 18 17 16 15 14 13 13 12 12 11 11 10 10
3 2 6 6 5 7 5 6 6 4 4 4 1 3 3 2 2 2 3 3 3 3 1 0 3 3 2 1 2 3 4 3 3 2 2 2 2 2 3 5 4 3 2 0 2 4 6 9 12 14 15 15 16 17 18 17 17 17 17 18 19 19 21 21 20 20 20 20 20 19 19 19 19 18 17 16 15 15 14 14 13 13 12 11 11 11
3 4 3 6 6 6 7 7 6 7 6 3 2 4 3 2 1 1 2 3 4 4 2 1 2 0 2 4 4 2 1 2 3 2 1 2 3 2 3 4 4 4 3 2 1 2 4 7 10 12 14 15 16 17 17 16 16 17 16 17 18 19 19 19 19 19 20 20 20 19 18 19 19 18 17 17 16 16 15 15 14 13 13 12 12 12
3 4 1 6 7 5 7 6 4 4 6 6 6 5 4 2 2 3 3 3 4 5 3 3 4 2 5 4 3 1 1 2 2 2 2 2 3 4 4 4 4 5 4 3 2 1 1 4 7 10 12 13 15 16 15 15 16 16 15 16 19 20 19 19 19 18 18 19 19 19 19 19 19 19 18 18 17 17 16 15 15 14 13 13 12 12
4 4 3 5 6 6 4 2 4 4 2 4 5 5 4 3 3 4 3 3 3 5 4 4 6 3 6 2 1 2 2 3 3 2 2 3 3 4 4 5 5 5 4 4 3 2 1 2 4 7 10 12 14 15 15 16 16 15 16 19 19 19 19 19 19 19 19 18 18 19 20 19 19 18 18 18 18 18 17 16 16 15 14 14 13 12
2 3 5 4 2 1 5 5 2 3 3 5 5 4 3 4 5 5 4 2 2 3 2 3 6 2 6 3 1 2 2 3 3 2 1 3 4 4 4 4 5 4 4 4 3 2 1 1 3 5 8 10 12 13 14 15 15 15 16 18 17 17 18 18 18 18 19 19 18 19 19 19 19 18 19 19 19 19 19 17 16 16 16 15 14 13
1 3 5 3 1 2 4 5 3 2 4 7 6 4 5 5 5 5 4 2 3 3 2 4 5 1 6 4 3 3 3 2 3 2 1 2 4 4 3 3 4 4 4 3 3 3 2 1 2 4 6 8 10 11 13 14 14 14 15 15 15 16 17 16 16 17 18 19 19 19 19 19 19 19 19 19 19 20 19 18 17 16 16 16 15 14
5 4 4 5 4 5 5 5 5 5 6 7 4 4 5 6 4 4 2 2 5 5 4 5 5 2 6 4 4 5 4 3 3 2 1 1 2 2 2 2 2 3 3 3 4 4 3 3 2 3 4 6 8 9 10 12 13 14 14 14 15 15 15 15 16 16 17 17 18 18 19 19 19 20 20 20 20 20 20 19 18 17 17 16 16 15
6 4 5 6 6 5 5 4 3 4 6 6 4 5 7 8 7 6 4 4 6 4 3 6 5 3 7 6 5 5 5 4 3 3 2 1 1 1 1 2 1 2 3 4 4 4 4 4 4 4 4 5 6 7 8 9 11 13 13 14 14 14 14 14 15 16 16 16 16 17 18 19 19 20 20 20 20 20 19 19 19 18 18 17 16 16
4 5 7 7 7 5 3 1 0 2 4 6 6 8 9 9 9 7 6 5 4 2 4 6 5 2 3 6 5 5 5 5 4 4 4 3 3 2 2 2 1 2 3 3 3 4 4 3 4 4 4 4 5 6 7 8 10 11 12 13 13 14 14 14 15 17 18 17 17 17 18 19 19 19 19 20 20 19 19 19 18 18 18 17 17 16
3 6 9 10 9 6 3 0 1 4 7 7 7 9 10 10 10 10 8 5 2 3 5 3 3 6 4 4 5 5 5 5 5 5 4 3 3 2 2 2 1 1 2 2 3 3 4 4 4 4 4 5 5 5 5 7 9 10 11 12 11 12 13 13 14 17 18 19 18 18 18 18 18 18 18 18 18 18 18 18 18 18 17 17 17 17
5 7 9 10 10 5 2 2 3 6 8 7 7 8 9 11 11 11 11 6 4 7 7 1 4 8 6 2 3 3 4 5 4 4 3 3 2 2 2 2 2 1 1 1 2 3 3 3 4 4 5 5 6 6 6 6 7 9 11 12 11 11 12 12 14 15 17 18 18 18 18 18 18 17 17 17 18 18 18 18 18 18 18 17 17 17
5 4 5 8 9 6 5 5 5 6 6 6 8 8 9 11 11 11 11 8 6 8 8 3 5 9 5 1 3 4 3 4 5 5 4 4 3 2 1 2 2 1 1 1 1 1 2 3 3 4 5 5 5 6 6 6 5 6 8 10 11 12 13 13 14 16 17 17 18 18 18 18 17 17 18 18 18 18 18 18 18 18 18 18 18 18
4 2 3 6 8 7 7 6 6 7 7 7 9 8 9 10 10 10 9 7 7 8 8 7 8 8 3 4 5 5 4 5 6 6 6 4 3 3 2 2 2 2 2 1 0 1 2 3 4 4 5 5 6 6 6 5 5 6 7 7 9 11 13 14 15 17 18 18 18 18 18 17 17 18 18 18 19 19 18 18 18 17 18 18 18 18
6 4 4 7 8 7 8 9 8 7 7 9 10 10 10 10 10 9 8 7 8 9 9 9 9 6 4 7 7 6 6 7 8 7 6 5 4 3 3 2 1 1 1 0 1 2 3 3 4 5 6 6 6 6 6 6 6 6 6 6 7 9 11 13 15 16 18 19 19 19 18 18 17 18 19 19 20 20 19 18 18 18 18 18 17 17
8 6 5 7 8 6 8 9 8 7 8 9 8 9 11 12 10 9 8 7 8 9 8 8 5 0 6 8 7 8 8 8 7 6 5 5 5 4 3 2 2 1 0 0 1 2 3 4 5 6 7 7 7 6 6 6 7 7 7 7 8 8 9 11 13 15 17 18 20 20 20 19 18 19 20 20 20 20 19 19 18 18 18 18 18 17
9 9 7 6 7 6 6 7 6 8 9 5 1 2 7 9 9 10 9 8 7 7 7 5 0 4 6 6 7 8 8 7 5 5 3 2 3 3 3 3 2 1 1 1 2 2 3 5 6 7 7 7 7 7 7 7 7 8 8 8 8 8 9 10 11 14 16 18 19 20 21 21 20 20 21 20 20 19 19 19 19 19 18 18 18 17
10 10 7 6 7 6 4 6 8 10 6 2 4 3 0 3 6 8 9 8 6 7 8 6 3 4 4 4 5 6 7 6 4 4 4 2 2 2 3 3 2 1 2 2 3 3 4 6 7 8 7 7 8 9 9 8 8 9 9 9 9 9 9 10 11 12 14 17 18 19 20 21 22 22 21 21 20 19 19 19 19 18 18 17 17 17
10 9 6 5 6 5 5 7 10 6 2 5 5 4 3 2 5 6 7 8 8 8 8 7 5 5 5 5 5 6 6 6 3 3 4 4 3 3 2 2 0 1 2 3 4 4 5 6 7 7 7 8 9 9 9 9 9 9 9 10 10 10 10 10 11 13 14 15 17 18 20 21 22 23 22 21 20 19 19 20 19 18 17 16 15 15
10 9 7 7 7 6 8 9 8 4 3 5 4 4 6 6 6 6 6 5 6 7 8 8 6 7 7 7 7 6 6 4 4 4 6 6 5 4 3 1 0 2 3 4 4 5 6 6 7 8 8 9 9 9 9 9 9 10 10 10 10 10 11 11 12 14 15 16 16 18 19 20 21 23 23 22 22 21 21 20 20 19 17 16 15 14
9 8 8 9 7 7 9 9 8 7 8 8 7 7 8 7 5 6 6 4 5 8 9 9 9 9 9 9 8 7 6 4 4 4 7 8 6 5 4 2 1 1 3 4 5 6 7 7 7 8 9 9 9 9 9 10 10 10 10 10 10 11 11 12 13 14 15 16 17 18 19 19 20 22 23 23 24 24 22 21 20 19 18 16 15 14
8 7 8 9 8 8 9 9 8 9 8 6 6 7 8 6 4 4 7 5 6 10 10 10 11 11 10 10 9 7 5 5 4 2 7 8 7 6 4 2 1 1 2 3 5 6 7 8 8 8 8 8 9 9 9 10 10 9 10 10 10 11 12 13 14 14 14 15 16 18 19 19 21 21 23 24 24 24 24 22 21 19 17 16 16 14
8 6 8 10 10 9 9 9 8 7 4 4 7 7 7 6 6 6 7 4 6 11 11 11 11 11 10 10 9 7 5 4 2 5 8 7 7 6 3 1 1 1 2 4 5 7 8 8 8 8 8 8 9 9 10 10 9 9 10 10 10 11 12 13 13 14 15 15 15 17 18 20 21 21 23 23 22 23 24 23 21 19 17 16 16 14
7 7 8 11 11 10 10 10 8 7 3 7 8 8 9 8 6 8 6 1 6 10 10 11 11 11 11 10 8 6 2 2 5 7 8 7 6 5 4 2 1 1 2 4 6 7 8 8 8 8 9 9 10 10 10 10 10 10 10 10 10 11 11 12 13 13 14 15 16 16 17 19 21 22 23 22 21 23 25 23 20 19 17 17 16 16
6 7 8 9 10 10 9 9 9 7 3 8 8 7 8 7 7 6 2 2 7 10 10 10 10 10 11 10 7 3 4 6 6 7 7 5 5 4 3 2 1 1 3 4 6 7 8 8 8 9 9 9 10 10 10 10 11 11 10 10 11 11 12 13 13 13 14 15 16 17 17 18 20 22 23 22 21 21 21 19 17 17 18 19 19 19
3 5 8 8 8 9 9 9 10 7 4 12 12 6 6 7 4 2 4 3 5 9 9 8 9 9 10 9 6 4 5 6 6 6 6 4 4 4 2 1 1 2 3 5 6 6 7 8 8 9 9 9 10 10 10 10 11 11 11 11 12 12 13 13 13 13 14 14 14 16 17 17 18 20 22 22 20 18 16 16 17 18 20 20 20 20
2 3 6 4 3 6 7 6 4 3 3 12 11 4 7 6 1 2 5 5 5 8 8 6 7 9 8 7 6 6 5 5 5 5 5 4 4 3 2 1 1 2 4 5 6 6 7 8 8 9 9 9 10 10 10 10 11 11 12 12 12 13 13 13 13 13 13 13 13 13 14 16 17 19 21 21 20 16 15 17 19 20 20 20 20 21
3 2 1 1 1 3 5 2 1 3 1 9 7 1 2 6 1 2 3 5 6 7 6 5 7 8 7 6 7 6 5 5 5 5 5 4 4 3 1 0 0 2 4 4 5 6 6 7 8 9 9 9 10 10 9 9 11 12 13 13 13 13 13 13 12 12 11 12 11 10 11 13 14 16 17 18 18 15 15 17 18 18 19 21 21 20
3 5 3 1 2 4 5 3 2 3 1 6 6 1 2 2 1 1 2 5 7 6 6 6 8 9 7 6 6 5 5 5 5 5 5 4 3 3 2 1 1 2 4 4 4 5 6 6 7 8 9 9 9 9 9 9 10 11 13 14 14 13 12 11 10 9 8 8 7 7 7 8 8 8 8 9 11 12 14 16 17 18 19 21 21 19
3 4 4 3 2 3 2 1 3 4 3 3 6 4 1 1 0 1 0 4 7 7 6 7 8 9 8 7 6 5 5 6 6 5 5 4 3 3 3 2 1 2 3 3 3 4 5 5 6 8 8 9 8 9 9 10 10 11 12 13 13 12 9 8 7 7 6 6 5 4 3 2 4 5 5 6 8 9 9 10 13 14 15 16 18 18
4 3 6 7 6 6 4 4 7 8 5 4 5 5 3 2 2 1 2 5 8 8 7 7 7 8 7 6 6 5 6 6 6 6 5 4 3 3 3 2 1 1 1 1 2 3 4 5 6 7 8 8 8 9 10 10 10 10 11 11 10 9 8 8 8 9 9 10 10 10 11 11 13 15 17 17 16 16 14 13 13 13 10 7 10 16
4 4 5 6 7 8 7 5 7 9 7 4 3 4 2 1 2 2 3 6 9 9 8 7 6 6 6 6 5 6 6 6 6 6 5 5 4 4 4 3 1 1 1 0 1 2 3 4 6 6 7 7 8 9 9 9 10 10 9 9 8 8 9 11 12 13 14 14 15 16 17 17 18 22 27 29 28 27 24 20 18 19 17 13 8 11
4 6 6 5 6 7 3 2 5 5 5 3 4 2 2 2 3 4 5 7 9 9 8 8 7 6 5 5 5 6 6 6 6 6 5 4 4 5 5 3 2 2 2 1 1 2 3 4 5 5 6 7 7 8 8 9 9 9 9 8 9 10 12 13 14 15 16 17 18 19 21 22 21 23 29 34 36 36 34 29 25 23 24 22 18 15
4 5 4 3 4 2 2 5 6 4 3 4 8 7 3 3 5 6 7 8 9 9 9 9 9 8 6 6 5 5 6 6 7 7 6 5 5 6 5 4 4 3 3 2 1 2 3 4 4 4 5 6 6 6 7 8 9 9 9 9 10 12 14 15 15 15 16 17 17 18 20 22 21 21 26 32 36 38 40 39 35 31 30 31 30 28
Wind_Direction
227 231 217 227 205 163 200 251 312 349 350 318 312 317 341 33 72 82 105 148 178 206 174 168 166 190 244 224 166 214 217 211 209 203 206 207 199 189 191 187 175 182 163 146 166 171 168 165 162 162 163 163 160 162 163 163 163 160 161 160 161 164 164 165 168 170 170 169 171 172 172 172 171 170 167 168 169 165 159 153 156 161 166 168 163 164
215 239 226 220 95 106 258 282 297 302 303 299 299 306 330 59 82 90 107 143 189 237 178 173 191 197 218 209 176 205 223 215 210 208 207 208 212 208 204 197 186 182 159 158 176 177 174 168 166 166 167 168 165 165 169 168 166 164 163 163 164 166 168 171 171 172 174 174 176 175 175 172 169 172 174 172 173 171 165 163 164 165 170 171 164 165
208 234 224 180 112 241 271 287 277 280 286 285 287 293 312 89 105 119 131 142 185 244 159 172 219 213 204 197 182 200 221 221 212 217 218 214 215 216 216 209 203 194 172 177 189 181 178 173 170 171 170 173 170 169 173 171 168 168 166 165 168 170 172 174 173 175 176 176 179 179 177 174 169 175 179 173 172 174 172 173 174 172 175 175 173 175
205 224 224 192 183 234 251 257 261 268 261 266 279 286 322 108 171 137 147 160 182 249 336 245 244 232 202 195 192 200 211 213 206 216 226 228 227 224 225 221 215 206 188 191 197 186 181 177 176 178 174 174 175 174 176 174 172 173 171 169 170 173 175 176 175 176 176 175 178 180 180 178 170 174 181 179 179 183 178 177 180 180 179 182 184 185
216 178 221 218 207 234 251 241 244 256 234 216 242 289 334 74 296 42 129 160 180 213 259 281 253 210 192 199 202 199 200 203 199 206 215 221 231 234 234 233 227 217 203 200 203 192 184 181 182 183 178 178 179 180 180 178 177 177 175 172 171 173 176 177 176 175 173 175 178 180 181 185 183 180 186 190 188 185 183 183 184 185 184 187 190 190
221 129 130 214 212 225 242 241 234 253 249 194 134 340 331 89 128 124 143 168 207 190 193 269 266 136 152 204 201 183 191 203 201 206 212 210 217 226 232 236 233 225 214 207 207 200 190 186 186 184 183 184 183 184 185 182 181 179 176 175 173 173 176 178 178 177 175 176 183 188 189 190 192 192 192 193 189 182 184 188 184 183 185 188 192 193
200 139 180 216 214 216 233 245 227 234 259 218 92 21 320 149 154 156 162 191 263 98 142 239 268 86 141 163 156 167 195 210 204 209 215 210 210 213 218 228 230 227 218 210 209 206 196 190 190 188 189 191 189 186 185 185 183 181 178 177 177 176 177 178 179 180 181 181 186 193 196 195 195 195 193 192 192 184 184 186 182 183 184 187 195 196
173 169 193 213 217 215 224 234 198 211 254 309 77 51 157 157 174 172 179 210 293 83 147 200 249 281 231 121 128 178 206 211 209 214 215 210 210 211 211 214 222 225 219 211 208 207 201 196 195 194 193 195 194 187 185 186 185 182 181 180 180 180 180 180 180 183 187 187 189 195 199 200 199 198 192 192 200 197 192 190 186 189 186 187 198 201
168 192 188 198 211 210 212 55 107 209 248 60 76 104 142 166 185 183 203 221 185 213 192 168 226 268 235 133 143 191 209 206 211 215 216 214 211 212 212 206 212 221 220 215 211 206 202 201 200 196 195 198 197 190 186 188 185 183 183 183 183 183 182 182 181 184 190 192 192 194 198 201 203 202 196 193 200 203 205 204 199 199 195 193 201 206
135 190 182 211 220 190 81 52 59 242 247 97 124 150 136 161 180 199 226 207 205 248 262 110 262 284 261 145 147 193 199 153 177 188 204 214 213 216 217 205 203 213 219 217 214 211 204 202 201 196 194 200 200 193 189 190 187 183 184 185 187 187 186 185 184 185 191 193 194 196 199 202 202 203 204 201 200 201 206 210 208 205 206 205 206 207
124 124 243 255 268 64 77 80 89 213 118 137 169 172 159 172 178 203 230 224 240 249 207 107 282 292 283 140 112 106 92 60 51 105 136 184 208 217 218 209 199 200 212 216 214 214 207 203 199 193 195 202 203 197 191 191 189 186 185 186 189 191 190 189 188 188 191 195 198 200 202 203 204 204 205 205 205 205 208 213 212 207 208 211 211 210
183 190 194 177 133 113 120 117 112 134 151 177 203 195 193 192 187 210 218 235 256 247 113 112 227 263 270 281 76 100 114 68 0 357 38 120 188 209 215 216 206 198 205 211 215 215 207 203 196 188 193 202 202 202 198 192 190 189 187 187 190 193 193 193 193 192 194 197 200 203 204 205 206 208 209 209 211 213 215 217 216 210 208 211 213 215
188 187 153 133 153 181 171 140 134 161 186 212 217 205 213 201 200 227 219 234 259 204 114 127 190 249 263 276 28 149 152 94 16 344 345 5 75 204 208 218 215 206 206 207 213 213 205 206 198 186 190 196 194 202 206 197 191 190 189 189 191 193 194 196 196 196 196 199 201 204 205 205 207 211 214 215 217 220 221 221 220 214 211 211 213 216
172 160 160 163 169 201 213 197 173 181 196 212 214 220 233 223 225 234 209 225 246 133 116 131 180 254 259 259 39 145 143 95 67 9 351 5 16 254 220 219 217 211 212 210 210 211 206 208 203 192 191 189 186 196 206 200 193 192 190 191 193 194 195 198 200 200 200 201 202 204 205 206 207 211 214 217 221 223 222 222 223 221 217 214 213 215
199 171 172 178 154 182 212 243 268 209 190 206 232 254 264 276 269 270 260 269 292 110 131 157 201 267 272 129 61 68 113 112 100 74 28 30 59 49 236 228 222 212 214 216 213 212 209 207 208 203 196 189 185 193 200 198 194 194 192 192 194 195 195 199 202 203 203 203 203 204 206 208 209 211 213 216 221 223 223 224 224 224 225 221 215 214
250 180 131 135 104 177 206 229 270 259 202 185 220 243 262 306 301 300 322 325 324 297 177 178 231 289 303 181 175 146 142 132 121 127 103 55 71 82 125 196 222 216 210 216 216 216 212 208 208 206 202 199 193 192 195 194 194 195 194 192 194 196 197 199 202 205 207 206 205 205 207 211 211 211 211 212 216 220 223 227 225 224 228 230 224 217
238 133 119 142 152 181 223 207 206 257 240 160 203 217 179 4 296 278 271 287 287 275 244 199 254 252 166 196 193 197 194 159 159 163 110 58 55 79 74 79 71 222 205 218 219 218 215 210 207 205 205 205 200 195 195 194 194 195 195 193 193 195 197 199 200 204 208 208 208 208 210 213 214 212 212 212 212 216 220 224 227 227 227 229 228 224
250 152 131 163 164 145 238 205 184 242 268 216 207 161 109 52 275 275 271 239 250 263 258 266 287 291 266 239 173 201 226 193 182 166 121 109 62 64 71 71 52 42 172 222 223 223 220 211 207 206 205 203 202 199 194 192 193 195 196 197 197 197 198 200 200 202 205 208 211 212 213 215 216 215 216 215 214 215 218 220 223 226 227 226 225 225
272 237 132 150 151 132 176 205 177 183 236 276 304 136 171 224 218 232 274 277 270 283 285 113 312 305 300 352 126 193 232 207 182 160 133 124 76 44 62 73 55 36 45 241 223 224 223 215 209 206 203 200 198 195 189 188 194 199 201 202 204 204 204 204 203 202 203 206 210 213 214 215 216 218 219 219 219 218 218 219 221 223 225 225 223 223
243 259 142 142 144 142 180 208 198 174 183 233 214 181 219 274 283 253 278 294 294 304 327 336 293 242 74 17 6 0 252 197 171 142 92 62 67 41 35 54 48 36 30 16 337 230 225 220 214 206 200 194 189 191 191 193 201 204 205 209 208 206 207 210 210 206 205 207 209 212 214 215 215 217 220 221 221 220 220 220 222 224 224 223 224 223
192 246 200 135 147 181 198 208 235 198 174 194 208 201 203 215 259 258 248 268 293 304 320 313 300 58 72 29 353 25 121 142 125 113 93 57 57 50 36 33 36 40 33 23 13 330 249 226 215 203 199 195 194 201 206 209 212 207 206 214 213 205 205 211 212 211 210 211 211 212 213 215 215 216 219 221 221 221 221 221 223 225 225 224 225 225
200 222 220 165 174 199 173 95 336 324 259 232 234 222 211 206 231 253 235 209 255 293 311 315 309 28 80 64 16 74 122 131 123 131 112 84 68 61 47 33 33 34 30 27 18 0 330 241 219 205 207 210 210 213 213 213 215 210 208 216 215 207 207 212 212 211 211 213 214 215 215 215 216 217 220 222 222 221 222 221 222 223 224 225 225 224
206 230 230 216 198 158 81 70 353 312 290 267 268 261 246 231 235 256 270 218 209 259 293 296 293 29 93 103 97 98 114 123 130 146 125 102 90 75 55 43 36 30 28 27 20 17 9 259 230 215 218 220 220 220 219 217 217 215 214 217 216 210 209 211 211 210 209 210 213 217 218 218 217 218 220 222 223 223 222 221 221 221 223 226 225 223
180 230 228 233 202 131 105 109 146 195 231 238 236 235 252 259 258 273 303 317 263 246 234 261 271 108 105 117 122 123 138 151 160 165 139 108 99 89 70 50 31 22 23 25 28 25 16 329 250 239 230 226 227 227 226 224 223 221 219 218 217 214 211 209 212 212 210 209 212 216 220 222 221 220 221 222 224 224 224 223 222 222 223 226 226 225
195 214 215 229 216 193 186 175 169 182 214 236 224 197 236 253 248 257 274 277 266 258 251 271 282 89 114 138 145 151 167 184 184 159 130 102 97 97 88 68 34 19 16 19 29 25 14 5 317 279 255 239 238 237 233 230 226 223 220 216 216 218 217 215 216 216 214 213 216 219 221 223 224 224 222 222 224 225 224 225 225 224 225 227 228 228
192 207 204 230 233 218 218 210 199 200 205 219 209 190 219 226 211 225 245 239 248 240 217 255 283 75 120 149 164 167 177 200 193 162 155 150 134 136 108 72 40 24 24 25 27 24 19 8 347 329 299 267 253 249 247 240 231 226 222 218 217 221 224 222 222 222 219 218 223 228 227 224 225 226 225 223 225 226 226 226 227 227 227 227 228 229
188 211 208 234 249 249 249 176 75 271 224 215 212 201 212 217 210 222 248 254 255 240 221 236 262 291 153 153 168 181 183 201 197 177 182 186 176 164 130 91 59 40 35 34 29 26 26 12 355 348 327 303 281 262 254 247 240 233 227 222 221 223 225 224 223 223 220 219 224 230 232 229 227 226 227 226 225 226 227 227 228 229 229 228 228 229
196 209 207 225 239 252 282 105 155 249 252 251 235 212 208 207 207 219 238 259 276 257 259 223 205 255 254 148 163 181 181 199 201 184 185 184 170 133 107 115 123 92 59 50 46 34 24 12 9 0 348 342 328 302 274 255 245 238 234 231 227 226 227 226 225 223 222 223 226 228 230 232 232 230 229 228 226 226 227 228 229 230 231 231 230 230
227 213 198 215 224 225 240 222 214 237 251 258 245 224 209 203 209 224 236 242 237 253 276 40 172 236 254 178 156 153 167 191 180 157 152 143 136 125 129 158 157 132 112 73 61 46 20 6 8 4 359 357 348 336 318 287 262 247 242 239 236 232 228 227 229 229 229 230 230 228 227 229 231 231 230 228 225 224 225 227 229 230 231 231 232 232
253 220 187 215 221 206 193 199 217 229 234 237 234 226 214 211 216 228 236 235 232 249 268 272 233 245 251 164 121 112 132 154 139 135 146 147 149 160 183 184 167 166 168 131 70 29 2 345 344 346 351 352 344 337 331 319 301 275 258 249 244 240 234 230 231 234 235 234 232 230 227 227 228 228 228 226 224 223 223 226 230 231 231 230 230 231
238 215 186 218 223 208 192 190 206 220 227 230 227 220 219 224 225 229 240 240 230 243 253 250 251 251 219 124 122 128 138 150 154 158 158 155 164 184 211 218 184 186 184 146 60 325 310 307 314 320 327 334 334 331 327 322 314 298 281 266 255 248 242 237 233 233 234 235 235 233 230 228 228 227 226 225 225 225 225 227 229 230 230 229 228 228
207 200 181 211 231 219 195 198 206 211 229 240 234 223 219 226 232 233 238 237 237 251 250 240 250 251 163 135 140 149 160 172 172 166 158 158 171 195 223 236 216 209 204 138 1 322 312 308 310 311 314 319 321 319 321 321 313 305 300 294 281 266 252 242 237 237 235 234 235 235 232 229 227 228 229 226 226 228 228 229 228 228 227 227 227 225
203 205 196 215 239 228 193 202 211 208 228 240 236 230 225 225 236 242 240 234 236 252 258 249 256 202 130 149 162 163 173 184 177 165 162 161 170 194 225 241 251 256 232 306 329 314 309 308 309 313 313 315 316 316 323 325 314 311 317 317 310 299 277 252 242 241 239 237 236 235 234 232 229 229 230 228 227 228 229 229 228 226 226 226 227 225
204 218 220 219 242 235 183 182 210 222 232 238 200 241 237 231 234 240 246 244 225 230 256 271 252 112 139 175 183 171 172 176 162 149 140 138 169 193 211 233 258 289 301 302 314 323 321 316 314 317 317 318 321 320 318 314 302 299 302 301 298 297 291 279 262 249 243 240 239 237 237 235 233 232 231 229 228 227 227 227 227 227 228 228 226 223
206 218 222 217 239 241 178 179 222 232 228 160 93 86 236 246 241 245 256 259 237 223 235 240 204 158 166 176 165 157 153 143 135 142 142 142 180 190 197 218 252 318 321 317 329 340 338 327 319 319 322 323 322 316 310 306 300 295 292 288 286 279 277 284 281 265 252 244 241 239 238 236 235 234 232 229 226 224 224 226 226 227 227 227 226 221
214 217 218 219 233 235 205 211 231 237 160 125 118 111 125 193 220 235 249 245 230 222 216 212 191 156 154 147 135 135 135 133 147 174 171 172 183 198 209 203 199 332 327 332 335 334 334 331 325 324 324 320 314 308 306 306 303 297 289 284 283 276 268 269 269 265 259 251 245 242 239 237 236 234 232 229 225 222 222 222 224 225 225 225 225 220
225 221 217 221 224 227 231 228 230 245 212 187 188 182 188 203 209 223 247 235 206 200 196 188 170 152 156 154 142 136 137 156 195 194 179 181 185 192 207 199 26 316 324 335 334 325 324 330 329 322 317 313 308 306 305 303 299 293 288 284 279 274 269 263 257 255 255 253 251 246 242 240 239 236 234 230 227 225 222 222 223 223 221 220 218 215
227 225 219 224 220 218 239 240 230 241 240 223 217 205 203 218 222 228 254 247 184 184 188 181 169 164 165 161 152 147 155 198 233 188 164 174 179 179 192 199 229 307 331 337 335 331 330 334 331 319 315 313 309 309 308 304 299 292 287 284 278 272 267 262 258 256 254 253 252 250 247 245 242 240 237 234 231 228 225 223 221 219 216 215 212 211
216 219 217 228 226 215 233 243 233 240 244 221 199 189 192 204 195 210 252 247 178 174 183 179 172 171 170 165 158 160 183 235 269 128 140 159 167 170 182 184 177 323 333 332 340 342 335 332 325 317 317 316 313 318 317 308 303 295 288 285 279 272 265 261 261 260 258 257 255 253 251 248 245 243 240 237 235 231 227 224 221 217 213 211 210 209
204 212 212 226 232 219 223 238 240 244 239 157 157 171 171 163 165 202 246 250 162 167 179 179 173 171 168 162 163 180 216 265 339 92 124 142 149 155 162 134 104 329 323 329 342 343 330 323 322 320 321 321 320 324 322 314 308 299 293 290 283 274 269 268 269 266 263 260 258 256 253 249 247 245 242 240 237 234 231 226 221 216 210 207 208 201
197 210 215 226 233 223 219 233 244 245 194 128 144 160 144 140 182 220 243 213 153 169 177 178 174 167 163 165 177 198 197 88 84 103 119 128 133 143 147 126 122 309 333 337 339 337 326 322 325 323 323 325 325 325 323 318 311 303 298 295 287 283 284 285 284 278 269 260 255 255 254 251 247 245 243 241 239 237 235 229 223 217 208 200 193 186
198 205 215 228 235 229 227 234 242 244 175 129 137 144 145 174 221 232 225 141 166 170 171 176 173 162 163 173 187 186 116 106 109 111 117 126 131 137 144 131 125 341 348 339 331 331 327 323 325 324 324 328 327 327 326 320 312 308 305 300 296 298 300 298 292 286 277 266 256 250 251 252 250 246 243 241 239 237 234 227 220 214 204 193 187 183
202 214 221 224 228 232 234 230 237 248 160 137 138 145 185 218 242 175 147 147 165 166 165 172 168 159 167 176 170 146 128 123 124 120 121 128 124 120 128 95 34 337 331 324 322 330 329 323 325 326 326 329 331 329 328 322 317 315 312 307 307 307 306 303 299 292 281 273 266 254 248 248 249 246 242 239 236 233 226 215 210 208 202 192 183 177
185 229 240 230 211 227 232 222 234 289 141 155 160 176 209 209 23 74 170 155 144 164 164 161 159 158 168 170 153 148 151 141 137 136 132 131 131 133 142 121 23 317 316 318 323 331 329 324 327 328 327 331 335 333 331 327 322 320 317 317 316 314 310 309 309 303 289 280 276 265 251 245 246 245 241 237 234 230 221 212 206 202 195 183 172 166
159 137 253 304 335 262 267 277 328 7 130 185 188 8 234 199 143 345 210 164 146 164 164 153 154 154 158 161 153 160 169 153 144 144 137 136 143 139 131 131 312 309 311 317 328 332 330 326 325 326 330 335 337 334 333 329 324 321 323 325 324 321 319 317 316 313 301 290 286 279 261 249 245 243 239 236 234 227 213 203 195 187 180 174 168 163
105 121 157 210 328 299 291 299 311 355 350 218 210 51 9 221 166 4 224 170 149 155 155 150 152 151 153 160 163 171 171 152 145 145 142 145 147 140 152 203 245 305 308 318 336 333 325 321 322 326 334 338 340 340 338 334 330 329 330 332 332 330 326 325 326 325 315 305 304 298 280 257 240 233 231 228 221 210 201 197 190 181 175 173 172 167
184 184 209 219 272 287 276 3 354 354 352 283 236 212 235 268 278 15 258 152 142 143 143 140 147 152 156 165 174 174 159 148 148 148 146 151 158 162 183 198 201 316 315 334 346 328 321 328 332 335 339 341 344 345 342 341 342 340 339 340 340 339 339 344 352 358 1 8 18 26 43 101 143 147 130 126 141 151 157 166 171 168 167 169 169 164
188 205 235 231 229 240 249 304 325 316 297 274 242 223 217 206 187 133 70 125 134 133 129 130 144 156 163 172 180 168 151 149 153 151 151 157 167 181 190 189 187 272 296 348 345 328 331 339 337 338 343 347 345 343 344 350 353 352 353 355 355 1 13 26 34 41 45 48 57 68 76 84 96 102 100 98 100 100 100 108 121 121 112 127 158 159
134 187 232 235 232 238 244 277 318 311 285 264 240 225 215 163 155 140 117 131 137 133 127 128 140 157 166 169 169 158 148 148 151 153 155 158 167 177 177 174 185 210 207 14 5 356 355 349 343 345 351 350 345 345 351 359 3 6 11 15 21 34 45 53 57 60 62 65 70 75 77 81 86 91 93 92 89 86 84 89 102 106 99 94 113 143
198 227 234 235 236 238 246 359 3 326 286 315 358 329 225 178 167 156 144 146 147 145 141 136 132 137 144 147 153 156 150 147 151 155 157 162 171 168 163 168 183 180 169 129 44 26 15 3 353 355 359 353 350 357 5 8 14 22 29 35 42 51 60 67 70 69 70 72 74 76 80 83 85 89 93 95 94 92 88 87 91 99 101 99 98 107
240 255 253 253 250 238 45 24 6 334 298 342 358 346 316 211 188 179 168 161 157 153 152 149 143 139 136 137 149 157 149 146 155 161 163 165 161 156 160 176 177 163 153 144 121 56 33 20 11 18 19 4 360 13 20 22 29 39 46 54 60 64 68 71 73 74 75 75 75 77 82 85 87 89 92 94 96 97 95 93 91 93 98 102 101 99
Height
780 790 792 789 785 784 784 782 783 784 788 792 792 793 794 797 803 801 801 798 794 803 806 805 811 816 813 807 806 803 800 800 801 801 800 798 796 795 796 796 797 799 797 798 801 802 804 807 809 812 813 815 816 819 820 822 823 824 826 827 829 831 833 834 836 837 838 839 839 840 841 841 842 843 844 845 846 847 847 848 850 851 852 852 853 854
784 795 789 779 778 780 781 781 781 784 788 791 791 791 791 795 802 801 801 799 795 802 804 801 809 815 811 805 803 803 803 802 799 800 801 799 798 796 795 796 796 796 796 798 801 802 803 806 808 811 812 814 816 818 820 821 822 824 825 827 828 830 832 834 835 836 837 838 839 839 840 841 842 843 844 845 846 847 848 849 850 850 852 852 853 854
795 795 782 774 777 779 781 782 783 786 789 790 788 790 792 794 801 804 800 799 798 802 802 800 805 806 801 799 801 802 802 799 796 796 798 797 798 797 796 796 796 796 798 799 800 800 802 804 807 810 811 813 815 817 819 820 821 823 824 826 828 830 831 833 835 836 837 838 839 840 840 841 842 843 844 845 846 847 848 849 850 850 851 852 853 854
798 789 774 771 776 782 784 783 785 788 788 789 788 790 792 792 799 805 803 801 799 800 801 801 802 798 793 795 798 797 796 795 795 796 795 795 796 796 794 793 794 796 798 800 799 798 800 803 805 808 810 812 814 815 817 819 820 822 823 825 827 829 831 832 834 835 837 838 839 840 841 842 843 844 844 845 846 847 847 848 849 850 851 852 853 853
789 778 770 772 778 782 786 786 786 789 787 784 785 788 790 790 795 800 802 802 801 802 802 802 805 799 792 797 797 792 792 794 795 797 797 796 794 794 793 792 792 793 795 798 798 796 797 801 803 806 809 810 812 814 815 816 818 820 822 824 826 828 830 832 833 835 836 838 839 840 841 842 843 844 844 845 845 846 847 848 849 850 851 851 852 853
781 773 772 779 781 781 786 787 784 787 786 780 782 784 784 789 794 798 801 803 806 810 804 803 818 812 792 793 795 790 794 796 794 796 797 796 794 795 795 793 791 790 791 794 795 795 796 799 802 804 807 808 810 812 813 815 816 818 820 823 825 827 829 831 833 834 836 837 839 840 841 842 842 843 844 844 845 845 846 847 848 849 850 851 852 852
777 773 775 781 782 782 788 786 779 781 785 785 784 782 780 786 793 797 800 803 807 811 804 800 818 819 798 792 792 791 797 797 793 794 793 794 794 794 795 794 792 791 790 791 792 793 794 797 800 802 805 806 808 810 812 813 815 817 819 821 824 825 827 830 832 833 835 836 838 839 840 840 841 842 843 844 844 845 846 847 848 849 850 850 851 852
775 778 780 781 782 784 787 783 775 775 785 789 783 779 782 786 791 794 795 799 799 802 804 799 806 816 807 797 792 792 797 798 795 795 791 790 791 791 791 792 790 789 788 789 791 791 793 795 798 800 802 804 806 807 810 812 813 816 818 820 822 824 826 828 830 832 834 835 837 838 839 839 841 841 842 844 844 845 846 847 848 848 849 850 850 851
773 780 782 780 783 784 780 776 770 772 784 788 780 778 781 784 787 788 790 795 795 801 811 803 801 815 811 796 792 792 795 797 794 793 790 788 788 788 788 788 788 787 786 786 788 789 791 794 796 798 800 802 803 805 808 810 812 815 817 819 821 823 825 827 829 831 832 834 835 837 838 839 840 841 842 843 844 845 846 846 847 848 848 849 849 850
773 774 773 775 779 778 774 773 770 773 781 782 778 778 780 782 785 787 789 793 798 808 815 805 801 815 810 792 791 795 793 792 787 784 785 784 784 785 784 785 786 786 785 784 784 786 788 791 794 796 799 801 801 803 806 808 810 813 816 818 820 821 824 825 827 829 831 833 834 836 837 838 840 841 841 842 843 844 845 845 846 847 847 848 848 849
770 769 769 773 773 771 772 774 773 774 776 777 779 782 785 785 785 789 789 791 808 819 813 804 802 812 812 792 786 792 790 785 782 780 782 782 782 782 781 782 784 784 785 784 783 783 785 789 792 795 797 799 800 801 804 807 808 811 814 816 819 820 822 824 826 828 829 831 833 834 836 837 839 840 841 842 842 843 844 844 845 845 846 846 846 847
772 774 773 770 767 768 773 777 776 773 773 777 781 785 794 797 795 799 799 801 821 827 813 804 802 811 817 798 782 785 783 780 782 781 781 782 781 780 779 779 779 781 783 783 783 782 783 787 790 793 796 798 800 801 802 804 806 809 812 814 817 819 821 823 824 826 828 830 832 833 835 836 838 839 840 841 841 842 842 843 843 843 844 844 845 845
775 773 770 769 768 766 773 781 783 780 776 779 782 788 802 813 818 822 820 819 823 821 810 804 806 813 810 791 779 781 780 779 780 779 779 780 780 779 777 776 775 776 779 780 781 781 781 784 786 791 795 797 798 801 802 803 804 807 810 813 815 817 820 821 823 825 826 828 830 831 833 835 836 838 839 839 840 840 841 842 842 842 842 843 843 843
781 775 770 774 774 765 768 779 788 787 782 782 784 789 800 812 828 831 822 819 816 813 807 802 810 813 799 783 777 777 777 777 776 776 777 777 778 778 775 774 773 773 775 777 778 779 779 780 783 788 794 795 797 801 802 801 802 805 808 810 813 816 818 820 822 823 825 826 828 830 832 833 835 836 837 838 838 839 839 840 840 840 840 841 841 841
787 787 774 774 774 767 766 769 772 774 777 778 774 781 790 794 810 817 809 808 809 809 811 811 814 809 799 791 780 773 773 774 774 775 775 774 775 776 774 773 773 773 773 774 775 776 777 778 781 784 788 792 795 798 799 799 800 803 805 808 811 814 816 818 820 822 823 825 826 828 830 831 833 834 835 836 836 837 837 838 838 838 838 839 839 840
786 785 768 766 767 765 768 764 760 767 778 777 769 781 791 781 787 800 800 799 801 805 810 811 806 792 787 787 775 772 775 773 775 776 774 775 773 774 776 775 774 773 772 773 774 775 775 776 779 781 783 787 791 794 795 796 798 801 803 806 808 811 814 816 818 820 822 823 825 826 828 829 830 832 833 833 834 835 836 836 836 837 837 838 838 838
785 783 768 767 768 764 767 763 760 770 780 779 778 786 782 769 776 795 804 799 800 812 811 803 797 784 781 785 776 775 779 776 777 776 774 777 774 774 777 776 775 775 773 773 773 774 774 775 777 779 781 784 786 790 792 794 796 799 801 803 805 808 811 813 816 818 820 822 823 824 826 827 828 829 830 831 832 833 833 834 835 835 836 836 837 837
775 782 770 767 774 769 762 763 763 763 769 779 784 778 771 773 778 788 807 812 812 820 812 798 796 791 792 797 786 781 784 781 778 776 776 778 776 776 777 777 777 775 774 774 773 773 774 774 777 778 780 783 785 788 790 792 794 796 798 800 803 805 807 810 812 814 817 819 821 822 824 825 826 827 828 828 829 830 831 832 832 833 833 834 835 835
768 782 776 765 772 772 762 766 774 768 763 770 773 766 772 794 798 794 808 819 820 822 812 799 797 794 794 794 786 784 785 782 779 778 778 778 778 778 777 777 778 775 775 775 774 775 774 774 777 777 779 782 784 786 787 789 792 794 797 798 800 803 804 807 809 811 813 815 817 819 821 822 824 825 826 826 827 828 828 829 830 831 831 832 833 834
765 783 786 769 765 771 768 771 780 778 769 767 768 766 771 785 794 796 799 804 810 818 815 807 803 797 789 782 781 784 782 779 781 781 781 780 779 779 778 778 779 778 778 777 776 775 774 775 776 777 779 781 783 785 786 787 789 791 795 798 799 800 802 804 806 808 810 812 814 816 817 819 821 822 824 824 825 825 826 827 828 828 829 830 831 832
765 779 787 776 769 775 777 773 772 774 774 774 777 779 779 781 784 790 792 791 798 811 815 816 810 796 784 778 779 782 779 777 780 781 782 781 779 780 780 779 779 779 779 778 777 776 774 775 776 777 780 781 782 784 785 787 788 790 794 797 797 798 799 801 803 805 808 809 811 812 814 816 818 819 821 822 823 823 823 825 825 826 827 828 829 830
767 774 780 780 777 778 775 766 763 766 767 770 773 774 777 781 786 799 806 795 791 801 806 813 814 796 780 777 776 776 776 777 778 780 782 781 781 782 781 780 780 780 780 779 777 776 776 776 776 778 780 781 782 783 784 785 787 789 793 795 795 795 796 798 800 803 805 807 808 810 811 813 814 816 818 819 820 820 821 822 823 824 825 826 827 828
759 767 775 777 774 772 769 764 764 766 763 764 767 765 767 773 779 798 810 799 792 797 797 804 812 797 778 774 774 774 775 775 777 778 780 781 782 783 782 781 781 780 779 779 778 777 777 777 778 779 780 780 781 781 783 784 785 787 790 792 793 793 794 796 798 800 803 804 806 807 809 810 811 813 815 816 817 817 818 819 821 822 823 824 825 826
760 768 777 780 773 768 766 763 763 764 765 769 769 765 767 770 771 779 788 787 792 797 796 806 813 798 781 775 774 776 777 776 777 777 778 781 782 783 783 782 781 781 779 779 778 778 778 778 778 779 780 780 780 781 782 783 784 786 788 789 790 791 793 795 797 799 801 802 803 805 806 808 809 810 811 812 814 814 815 817 818 819 820 821 822 823
766 772 778 787 791 787 783 780 776 773 771 771 768 767 769 768 771 777 778 785 795 793 792 806 807 791 782 778 775 777 779 778 778 777 778 781 782 783 783 782 782 782 780 779 779 779 779 779 779 779 780 780 781 781 782 783 784 785 786 788 789 790 792 794 796 798 799 800 802 802 804 805 807 807 808 809 810 811 813 814 815 816 817 819 820 820
762 770 774 786 799 803 802 797 787 777 771 768 768 772 773 770 775 782 782 792 802 793 790 800 797 785 780 780 779 779 780 781 779 778 779 781 782 782 782 782 782 781 781 781 780 780 780 779 780 780 781 781 781 782 782 783 784 784 785 787 788 789 791 793 795 796 797 799 800 801 801 802 804 805 805 807 808 809 810 811 812 813 815 816 817 818
759 767 767 775 783 785 786 783 772 766 769 772 772 774 774 771 772 778 785 792 793 791 793 791 786 785 783 780 781 780 779 781 780 779 781 780 781 781 781 783 783 781 782 782 781 781 780 780 781 781 781 781 781 782 783 783 784 784 785 786 786 788 789 791 793 794 795 796 797 798 799 799 801 802 803 804 805 807 808 808 810 811 812 813 815 816
764 769 765 768 771 767 767 767 764 765 769 770 771 773 773 772 773 779 786 785 782 792 798 785 781 789 784 775 778 778 776 779 778 778 780 779 780 781 782 783 783 782 782 782 781 782 781 781 781 781 782 782 782 782 782 783 783 783 784 785 785 787 788 789 790 791 792 793 794 795 796 797 799 799 801 802 803 805 806 807 808 808 810 811 812 813
762 767 761 763 767 764 764 765 764 766 768 766 767 770 771 773 776 779 780 777 779 791 793 782 783 789 780 771 774 773 773 775 775 776 778 778 780 782 782 783 783 783 783 782 782 782 782 783 782 782 783 783 783 783 782 782 782 782 783 783 784 785 786 788 788 789 790 791 791 792 793 795 796 798 799 800 801 803 804 805 806 807 808 809 810 811
759 765 761 762 767 767 766 767 766 766 769 769 768 767 768 771 773 774 774 772 776 782 780 778 784 783 772 769 771 772 771 772 774 776 778 779 782 782 783 783 783 783 783 782 782 781 782 783 782 782 783 783 784 784 783 782 782 782 782 782 783 784 785 786 787 787 788 788 789 790 791 792 794 795 797 798 799 800 801 802 804 805 805 806 808 809
760 768 765 762 769 771 768 768 768 768 770 771 769 766 767 769 771 772 772 771 776 781 777 778 785 782 770 767 771 774 773 773 775 778 779 780 781 782 783 783 783 783 782 781 782 781 781 781 781 782 782 783 784 783 783 783 782 782 782 781 782 782 783 784 785 785 786 786 787 788 789 790 791 793 794 795 796 797 798 800 801 802 803 804 805 806
759 767 766 766 775 775 768 769 770 767 769 772 771 768 769 772 772 771 770 770 775 779 778 781 786 780 769 768 772 774 774 774 776 777 778 780 780 781 782 782 782 782 782 781 781 781 781 781 781 781 781 782 783 783 783 783 782 782 782 781 781 781 781 782 782 783 783 784 785 785 786 787 788 790 791 792 793 794 795 797 798 799 800 801 802 803
754 762 766 770 778 775 768 769 769 771 781 783 771 763 765 767 768 767 767 767 769 772 777 781 779 771 767 769 773 775 774 774 774 774 776 779 779 781 781 781 781 781 781 781 781 781 782 781 781 781 781 781 782 782 783 783 782 782 782 782 781 781 780 780 780 781 781 781 782 783 783 785 785 786 788 789 790 791 792 794 795 796 797 798 799 800
752 758 762 766 774 777 771 768 772 785 796 785 762 753 757 760 764 768 768 764 764 766 769 770 769 768 768 768 770 773 773 772 772 773 774 776 778 780 780 780 780 780 780 780 779 780 781 781 781 781 781 782 782 782 782 782 782 782 782 782 781 780 780 780 779 780 779 779 780 780 781 782 782 783 785 786 787 788 789 790 791 792 794 795 796 797
755 757 760 763 769 773 770 776 793 801 788 767 755 753 755 756 758 764 765 761 761 764 766 767 768 768 768 767 767 769 770 771 772 773 773 775 776 778 780 780 780 780 780 779 778 780 781 781 782 782 782 782 782 782 782 781 781 781 781 781 780 780 779 779 778 778 778 777 777 778 778 779 779 780 781 782 784 784 785 787 788 789 791 792 793 794
752 755 759 763 768 773 777 788 798 790 768 758 760 759 758 760 762 767 770 764 758 761 765 767 767 767 768 769 768 769 771 772 773 773 774 775 776 777 779 779 779 780 780 779 779 781 781 782 782 782 782 783 782 782 781 781 780 780 779 779 779 778 778 778 777 777 776 775 775 775 775 776 776 777 777 779 780 780 781 783 784 786 788 789 790 791
745 752 759 766 770 774 781 782 778 774 771 768 765 759 757 759 760 765 772 765 753 754 760 763 766 768 769 770 770 770 772 774 776 774 772 773 776 777 777 777 778 779 778 779 780 781 781 782 782 782 782 782 781 781 780 780 779 778 778 777 777 776 776 776 775 775 774 774 773 773 773 773 773 774 774 775 776 777 778 779 781 783 785 786 787 788
743 748 757 766 769 769 776 779 779 787 787 772 758 751 748 749 749 753 765 765 754 751 755 759 764 768 768 770 772 772 774 778 778 773 771 773 775 776 777 777 777 778 778 779 780 781 781 782 782 782 782 781 780 780 779 779 778 777 776 776 775 774 774 773 773 772 772 771 771 770 770 771 771 771 771 771 772 773 774 775 777 779 781 783 784 785
747 748 751 762 766 767 776 783 785 787 778 760 749 746 745 747 746 752 769 771 755 748 752 755 761 765 766 768 771 772 776 779 775 769 769 772 774 775 776 776 776 777 779 779 780 781 781 782 782 781 780 779 779 778 778 777 776 775 775 774 773 772 771 771 770 770 769 769 769 768 768 768 768 768 768 767 768 769 770 771 773 776 778 780 781 782
753 752 754 764 766 764 773 779 773 768 762 751 747 747 746 744 746 764 787 779 752 745 750 752 757 762 762 765 769 771 774 774 771 769 769 770 772 774 775 775 776 777 778 778 780 781 781 781 781 780 779 779 778 777 777 776 775 774 773 772 771 770 769 768 768 767 767 767 766 766 766 765 765 764 764 764 765 765 766 767 770 772 774 777 778 780
757 755 755 760 760 760 771 776 768 758 752 748 748 746 743 747 759 778 786 767 747 745 747 747 753 758 759 764 767 766 766 766 766 767 767 768 772 773 774 776 777 777 778 779 780 781 781 781 780 780 779 778 778 777 776 775 774 773 772 770 769 768 766 766 765 765 765 764 764 764 763 762 762 761 761 761 762 762 762 764 766 769 771 774 775 777
759 757 757 758 759 759 761 767 769 762 747 743 747 745 745 758 772 772 760 746 742 745 745 745 750 754 757 761 761 760 761 762 763 765 767 769 771 772 773 774 775 777 779 780 780 781 781 780 780 779 779 778 777 776 775 774 773 772 770 769 767 766 765 764 763 762 762 761 760 760 760 759 759 759 758 759 759 759 760 761 764 766 768 770 772 775
754 759 760 755 755 758 760 766 775 770 749 739 748 753 753 758 758 749 744 743 741 740 743 747 748 751 755 758 758 759 761 762 764 766 768 769 770 772 773 774 776 778 779 779 779 780 780 780 779 779 778 777 776 775 774 773 772 770 769 768 766 765 764 762 761 760 758 757 757 756 756 757 756 756 756 756 757 757 758 759 761 763 765 768 770 773
752 757 759 750 748 759 769 771 769 760 743 736 743 751 749 745 740 737 741 744 741 740 743 747 748 750 753 754 757 761 762 764 766 767 768 770 771 772 774 775 776 778 779 779 779 779 779 780 779 778 777 776 775 774 773 772 771 769 768 766 765 764 762 760 759 757 756 755 754 753 753 753 753 753 753 753 755 756 756 757 758 760 763 766 768 772
751 751 755 754 751 753 759 757 751 746 741 736 738 741 741 737 735 735 736 738 741 741 742 745 750 751 751 753 758 761 762 764 767 767 769 771 771 772 774 775 777 778 778 778 779 779 780 780 779 778 777 775 775 774 773 771 770 768 766 765 764 762 761 759 757 756 754 753 752 751 751 750 751 751 751 752 753 754 755 756 757 759 761 764 766 769
748 747 751 754 752 749 748 746 744 744 743 739 737 740 741 738 735 735 734 736 740 740 740 744 749 750 751 754 758 760 762 764 766 768 769 770 771 772 775 776 778 778 778 778 779 780 779 778 778 777 776 775 775 773 772 771 769 768 766 764 763 761 760 758 756 755 753 752 751 750 750 749 749 750 750 751 751 752 753 755 757 758 760 762 764 767
749 749 749 750 753 757 756 750 744 744 746 743 740 740 740 739 738 737 736 737 738 740 741 743 746 749 752 755 757 760 763 764 766 769 770 770 772 773 774 776 778 779 779 779 780 780 779 778 777 777 776 776 775 773 771 770 769 767 766 764 763 761 760 758 757 755 753 752 751 750 750 749 749 749 750 750 750 751 753 755 756 758 760 761 763 765
750 752 751 749 751 755 754 748 743 743 743 741 741 740 740 740 740 739 737 737 738 741 743 744 746 750 752 754 757 760 762 764 766 769 769 771 772 773 774 777 778 779 780 780 780 780 779 778 778 777 777 776 775 773 772 770 769 768 766 765 763 762 761 759 758 756 755 754 753 752 751 751 751 751 751 752 752 753 754 756 757 759 761 763 764 764
749 754 751 749 751 752 750 747 747 746 744 741 741 740 739 740 741 740 740 738 739 743 745 746 748 750 752 754 756 758 762 765 765 767 769 770 771 773 775 777 778 779 780 779 780 780 779 779 779 778 777 777 775 774 772 770 769 768 767 766 765 763 762 761 760 759 758 757 756 755 755 755 755 754 754 754 755 756 758 759 760 760 762 764 767 767
749 752 748 750 758 759 755 753 753 755 754 749 744 742 741 741 741 742 741 741 742 745 747 749 750 751 752 754 756 758 763 765 765 766 768 769 771 774 776 777 778 779 779 779 780 780 779 779 779 778 778 777 775 774 772 771 770 769 767 767 766 765 764 763 762 761 761 760 760 760 759 759 760 759 758 758 758 759 761 763 765 764 764 766 770 773
748 749 746 750 756 755 753 752 753 755 755 751 745 743 742 740 741 742 743 742 743 744 746 749 752 753 755 756 756 758 761 763 764 766 767 769 771 774 776 777 777 778 779 780 780 780 780 780 780 779 779 778 776 774 773 772 771 770 769 768 767 767 766 765 764 764 764 764 764 764 763 764 764 764 763 763 762 762 763 765 768 770 770 770 773 778